Time,TemperatureF,DewpointF,PressureIn,WindDirection,WindDirectionDegrees,WindSpeedMPH,WindSpeedGustMPH,Humidity,HourlyPrecipIn,Conditions,Clouds,dailyrainin,SoftwareType,DateUTC
2013-04-01 00:03:00,48.4,38.7,29.96,NW,315,0.9,1.8,69,0.00,,,0.00,WUHU216HW,2013-04-01 07:03:00,
2013-04-01 00:08:00,48.6,38.9,29.96,SW,225,0.4,1.8,69,0.00,,,0.00,WUHU216HW,2013-04-01 07:08:00,
2013-04-01 00:13:00,48.6,38.9,29.96,South,180,0.2,1.8,69,0.00,,,0.00,WUHU216HW,2013-04-01 07:13:00,
2013-04-01 00:18:00,48.6,38.9,29.96,SSW,203,0.7,1.3,69,0.00,,,0.00,WUHU216HW,2013-04-01 07:18:00,
2013-04-01 00:23:00,48.6,38.9,29.97,South,180,0.4,1.3,69,0.00,,,0.00,WUHU216HW,2013-04-01 07:23:00,
2013-04-01 00:28:00,48.6,38.9,29.97,South,180,1.6,1.6,69,0.00,,,0.00,WUHU216HW,2013-04-01 07:28:00,
2013-04-01 00:33:00,48.6,38.9,29.97,SSW,203,0.0,1.6,69,0.00,,,0.00,WUHU216HW,2013-04-01 07:33:00,
2013-04-01 00:38:00,48.4,38.7,29.97,SSW,203,0.9,1.1,69,0.00,,,0.00,WUHU216HW,2013-04-01 07:38:00,
2013-04-01 00:43:00,48.2,38.5,29.97,SSW,203,0.4,0.9,69,0.00,,,0.00,WUHU216HW,2013-04-01 07:43:00,
2013-04-01 00:49:00,48.2,38.5,29.97,SE,135,0.4,0.9,69,0.00,,,0.00,WUHU216HW,2013-04-01 07:49:00,
2013-04-01 00:54:00,48.1,38.7,29.97,East,90,0.9,0.9,70,0.00,,,0.00,WUHU216HW,2013-04-01 07:54:00,
2013-04-01 00:59:00,47.9,38.5,29.97,SSW,203,1.1,1.1,70,0.00,,,0.00,WUHU216HW,2013-04-01 07:59:00,
2013-04-01 01:04:00,47.7,38.7,29.97,WSW,248,0.4,1.8,71,0.00,,,0.00,WUHU216HW,2013-04-01 08:04:00,
2013-04-01 01:09:00,47.7,38.7,29.97,SW,225,0.4,1.8,71,0.00,,,0.00,WUHU216HW,2013-04-01 08:09:00,
2013-04-01 01:14:00,47.5,38.6,29.97,SSW,203,0.9,0.9,71,0.00,,,0.00,WUHU216HW,2013-04-01 08:14:00,
2013-04-01 01:19:00,47.5,38.6,29.97,South,180,0.9,0.9,71,0.00,,,0.00,WUHU216HW,2013-04-01 08:19:00,
2013-04-01 01:24:00,47.3,38.4,29.97,ESE,113,0.2,0.9,71,0.00,,,0.00,WUHU216HW,2013-04-01 08:24:00,
2013-04-01 01:29:00,47.2,38.6,29.97,NW,315,0.4,0.7,72,0.00,,,0.00,WUHU216HW,2013-04-01 08:29:00,
2013-04-01 01:34:00,47.2,38.6,29.97,SSW,203,0.7,1.3,72,0.00,,,0.00,WUHU216HW,2013-04-01 08:34:00,
2013-04-01 01:39:00,47.2,38.6,29.97,SSW,203,0.7,1.3,72,0.00,,,0.00,WUHU216HW,2013-04-01 08:39:00,
2013-04-01 01:44:00,47.0,39.2,29.97,SSW,203,1.8,1.8,74,0.00,,,0.00,WUHU216HW,2013-04-01 08:44:00,
2013-04-01 01:49:00,47.0,39.2,29.97,SW,225,0.4,2.0,74,0.00,,,0.00,WUHU216HW,2013-04-01 08:49:00,
2013-04-01 01:54:00,47.0,39.2,29.97,SSW,203,0.9,2.0,74,0.00,,,0.00,WUHU216HW,2013-04-01 08:54:00,
2013-04-01 01:59:00,46.8,39.0,29.97,West,270,0.0,1.1,74,0.00,,,0.00,WUHU216HW,2013-04-01 08:59:00,
2013-04-01 02:04:00,46.6,38.8,29.97,NW,315,0.2,1.1,74,0.00,,,0.00,WUHU216HW,2013-04-01 09:04:00,
2013-04-01 02:09:00,46.4,38.6,29.97,WSW,248,0.0,0.7,74,0.00,,,0.00,WUHU216HW,2013-04-01 09:09:00,
2013-04-01 02:14:00,46.4,38.6,29.97,NNW,338,0.0,0.9,74,0.00,,,0.00,WUHU216HW,2013-04-01 09:14:00,
2013-04-01 02:19:00,46.4,39.0,29.97,WSW,248,0.0,0.9,75,0.00,,,0.00,WUHU216HW,2013-04-01 09:19:00,
2013-04-01 02:24:00,46.3,38.8,29.97,West,270,0.0,0.9,75,0.00,,,0.00,WUHU216HW,2013-04-01 09:24:00,
2013-04-01 02:29:00,46.3,38.8,29.97,West,270,0.0,0.9,75,0.00,,,0.00,WUHU216HW,2013-04-01 09:29:00,
2013-04-01 02:34:00,46.3,39.2,29.97,West,270,1.1,1.1,76,0.00,,,0.00,WUHU216HW,2013-04-01 09:34:00,
2013-04-01 02:39:00,46.4,39.0,29.96,WNW,293,0.4,1.6,75,0.00,,,0.00,WUHU216HW,2013-04-01 09:39:00,
2013-04-01 02:44:00,46.3,38.8,29.96,NNE,23,0.4,1.6,75,0.00,,,0.00,WUHU216HW,2013-04-01 09:44:00,
2013-04-01 02:49:00,46.1,38.6,29.96,SW,225,0.2,2.5,75,0.00,,,0.00,WUHU216HW,2013-04-01 09:49:00,
2013-04-01 02:54:00,45.9,38.8,29.96,NW,315,2.0,2.7,76,0.00,,,0.00,WUHU216HW,2013-04-01 09:54:00,
2013-04-01 02:59:00,45.9,38.4,29.96,West,270,0.2,2.7,75,0.00,,,0.00,WUHU216HW,2013-04-01 09:59:00,
2013-04-01 03:04:00,45.7,38.3,29.96,WNW,293,1.1,1.1,75,0.00,,,0.00,WUHU216HW,2013-04-01 10:04:00,
2013-04-01 03:09:00,45.7,38.3,29.96,NNW,338,0.4,1.1,75,0.00,,,0.00,WUHU216HW,2013-04-01 10:09:00,
2013-04-01 03:14:00,45.7,38.3,29.96,West,270,0.0,0.4,75,0.00,,,0.00,WUHU216HW,2013-04-01 10:14:00,
2013-04-01 03:19:00,45.7,38.3,29.96,West,270,0.4,0.4,75,0.00,,,0.00,WUHU216HW,2013-04-01 10:19:00,
2013-04-01 03:24:00,45.5,38.1,29.96,WNW,293,0.2,0.4,75,0.00,,,0.00,WUHU216HW,2013-04-01 10:24:00,
2013-04-01 03:29:00,45.4,37.5,29.96,NW,315,0.0,0.4,74,0.00,,,0.00,WUHU216HW,2013-04-01 10:29:00,
2013-04-01 03:34:00,45.2,37.4,29.96,WSW,248,0.0,0.7,74,0.00,,,0.00,WUHU216HW,2013-04-01 10:34:00,
2013-04-01 03:39:00,45.0,37.2,29.96,NW,315,0.0,0.7,74,0.00,,,0.00,WUHU216HW,2013-04-01 10:39:00,
2013-04-01 03:45:00,45.0,37.2,29.96,North,0,0.0,0.7,74,0.00,,,0.00,WUHU216HW,2013-04-01 10:45:00,
2013-04-01 03:50:00,45.0,37.2,29.96,SE,135,0.0,0.7,74,0.00,,,0.00,WUHU216HW,2013-04-01 10:50:00,
2013-04-01 03:55:00,44.8,37.0,29.96,NW,315,0.0,1.1,74,0.00,,,0.00,WUHU216HW,2013-04-01 10:55:00,
2013-04-01 04:00:00,44.6,36.8,29.96,WNW,293,0.0,1.1,74,0.00,,,0.00,WUHU216HW,2013-04-01 11:00:00,
2013-04-01 04:05:00,44.6,37.2,29.96,North,0,0.9,1.1,75,0.00,,,0.00,WUHU216HW,2013-04-01 11:05:00,
2013-04-01 04:10:00,44.6,36.8,29.96,North,0,0.4,1.1,74,0.00,,,0.00,WUHU216HW,2013-04-01 11:10:00,
2013-04-01 04:15:00,44.8,37.0,29.96,NNW,338,0.2,1.1,74,0.00,,,0.00,WUHU216HW,2013-04-01 11:15:00,
2013-04-01 04:20:00,44.6,36.8,29.96,NNW,338,0.4,1.1,74,0.00,,,0.00,WUHU216HW,2013-04-01 11:20:00,
2013-04-01 04:25:00,44.6,36.8,29.96,SE,135,0.4,1.1,74,0.00,,,0.00,WUHU216HW,2013-04-01 11:25:00,
2013-04-01 04:30:00,44.8,37.0,29.96,North,0,0.0,1.1,74,0.00,,,0.00,WUHU216HW,2013-04-01 11:30:00,
2013-04-01 04:35:00,44.8,37.0,29.96,NNE,23,0.9,1.1,74,0.00,,,0.00,WUHU216HW,2013-04-01 11:35:00,
2013-04-01 04:40:00,45.0,37.2,29.96,WNW,293,0.0,0.9,74,0.00,,,0.00,WUHU216HW,2013-04-01 11:40:00,
2013-04-01 04:45:00,45.0,37.2,29.96,East,90,0.0,0.9,74,0.00,,,0.00,WUHU216HW,2013-04-01 11:45:00,
2013-04-01 04:50:00,45.0,37.2,29.96,NNE,23,0.0,0.7,74,0.00,,,0.00,WUHU216HW,2013-04-01 11:50:00,
2013-04-01 04:55:00,45.0,37.2,29.96,East,90,0.4,0.7,74,0.00,,,0.00,WUHU216HW,2013-04-01 11:55:00,
2013-04-01 05:00:00,45.0,37.2,29.96,WNW,293,1.3,1.6,74,0.00,,,0.00,WUHU216HW,2013-04-01 12:00:00,
2013-04-01 05:05:00,45.2,37.4,29.96,West,270,0.0,1.6,74,0.00,,,0.00,WUHU216HW,2013-04-01 12:05:00,
2013-04-01 05:10:00,45.4,37.2,29.96,WNW,293,0.7,1.3,73,0.00,,,0.00,WUHU216HW,2013-04-01 12:10:00,
2013-04-01 05:15:00,45.4,37.2,29.96,SW,225,0.4,0.9,73,0.00,,,0.00,WUHU216HW,2013-04-01 12:15:00,
2013-04-01 05:20:00,45.2,37.0,29.96,North,0,0.0,0.9,73,0.00,,,0.00,WUHU216HW,2013-04-01 12:20:00,
2013-04-01 05:25:00,45.0,36.8,29.96,SW,225,0.0,0.9,73,0.00,,,0.00,WUHU216HW,2013-04-01 12:25:00,
2013-04-01 05:30:00,45.0,36.8,29.96,West,270,0.2,1.1,73,0.00,,,0.00,WUHU216HW,2013-04-01 12:30:00,
2013-04-01 05:35:00,45.0,36.8,29.96,NNE,23,0.2,3.1,73,0.00,,,0.00,WUHU216HW,2013-04-01 12:35:00,
2013-04-01 05:40:00,45.0,36.8,29.96,SSE,158,0.0,3.1,73,0.00,,,0.00,WUHU216HW,2013-04-01 12:40:00,
2013-04-01 05:45:00,44.8,36.6,29.96,North,0,0.7,2.9,73,0.00,,,0.00,WUHU216HW,2013-04-01 12:45:00,
2013-04-01 05:50:00,44.8,36.6,29.96,East,90,0.2,2.9,73,0.00,,,0.00,WUHU216HW,2013-04-01 12:50:00,
2013-04-01 05:55:00,44.8,36.6,29.97,North,0,0.4,1.3,73,0.00,,,0.00,WUHU216HW,2013-04-01 12:55:00,
2013-04-01 06:00:00,44.8,36.6,29.97,NNE,23,0.4,2.0,73,0.00,,,0.00,WUHU216HW,2013-04-01 13:00:00,
2013-04-01 06:05:00,45.0,37.2,29.97,ENE,68,0.7,2.0,74,0.00,,,0.00,WUHU216HW,2013-04-01 13:05:00,
2013-04-01 06:10:00,45.0,37.2,29.97,NNE,23,1.6,2.5,74,0.00,,,0.00,WUHU216HW,2013-04-01 13:10:00,
2013-04-01 06:15:00,45.0,37.2,29.97,NE,45,2.5,2.5,74,0.00,,,0.00,WUHU216HW,2013-04-01 13:15:00,
2013-04-01 06:21:00,45.2,37.0,29.97,ESE,113,0.9,2.5,73,0.00,,,0.00,WUHU216HW,2013-04-01 13:21:00,
2013-04-01 06:26:00,45.0,36.8,29.97,East,90,0.9,1.3,73,0.00,,,0.00,WUHU216HW,2013-04-01 13:26:00,
2013-04-01 06:31:00,45.0,36.8,29.97,South,180,0.2,1.3,73,0.00,,,0.00,WUHU216HW,2013-04-01 13:31:00,
2013-04-01 06:36:00,44.8,36.6,29.97,NE,45,0.7,1.3,73,0.00,,,0.00,WUHU216HW,2013-04-01 13:36:00,
2013-04-01 06:41:00,44.6,36.5,29.97,East,90,0.0,1.3,73,0.00,,,0.00,WUHU216HW,2013-04-01 13:41:00,
2013-04-01 06:46:00,44.6,36.5,29.97,West,270,0.2,1.3,73,0.00,,,0.00,WUHU216HW,2013-04-01 13:46:00,
2013-04-01 06:51:00,44.5,36.4,29.98,NNW,338,0.0,0.9,73,0.00,,,0.00,WUHU216HW,2013-04-01 13:51:00,
2013-04-01 06:56:00,44.5,36.4,29.97,SE,135,0.0,0.7,73,0.00,,,0.00,WUHU216HW,2013-04-01 13:56:00,
2013-04-01 07:01:00,44.3,36.2,29.98,North,0,0.0,0.0,73,0.00,,,0.00,WUHU216HW,2013-04-01 14:01:00,
2013-04-01 07:06:00,43.9,36.2,29.98,SSE,158,0.2,0.7,74,0.00,,,0.00,WUHU216HW,2013-04-01 14:06:00,
2013-04-01 07:11:00,43.6,35.5,29.98,SW,225,1.1,1.1,73,0.00,,,0.00,WUHU216HW,2013-04-01 14:11:00,
2013-04-01 07:16:00,43.4,35.6,29.99,WNW,293,0.0,1.1,74,0.00,,,0.00,WUHU216HW,2013-04-01 14:16:00,
2013-04-01 07:21:00,42.8,35.1,29.99,SSE,158,0.0,1.1,74,0.00,,,0.00,WUHU216HW,2013-04-01 14:21:00,
2013-04-01 07:26:00,42.5,35.1,29.99,NW,315,0.0,1.1,75,0.00,,,0.00,WUHU216HW,2013-04-01 14:26:00,
2013-04-01 07:31:00,42.1,35.4,29.99,NW,315,0.2,1.1,77,0.00,,,0.00,WUHU216HW,2013-04-01 14:31:00,
2013-04-01 07:37:00,42.1,35.4,29.99,NW,315,0.4,1.1,77,0.00,,,0.00,WUHU216HW,2013-04-01 14:37:00,
2013-04-01 07:42:00,41.9,35.6,29.99,NW,315,0.7,1.1,78,0.00,,,0.00,WUHU216HW,2013-04-01 14:42:00,
2013-04-01 07:47:00,41.9,35.6,29.99,WNW,293,0.4,0.7,78,0.00,,,0.00,WUHU216HW,2013-04-01 14:47:00,
2013-04-01 07:52:00,42.1,35.7,29.99,WSW,248,1.8,1.8,78,0.00,,,0.00,WUHU216HW,2013-04-01 14:52:00,
2013-04-01 07:57:00,42.1,35.4,29.99,West,270,1.1,1.8,77,0.00,,,0.00,WUHU216HW,2013-04-01 14:57:00,
2013-04-01 08:02:00,42.1,35.4,30.00,SSE,158,0.0,1.1,77,0.00,,,0.00,WUHU216HW,2013-04-01 15:02:00,
2013-04-01 08:07:00,42.3,35.6,30.00,SSW,203,0.0,1.1,77,0.00,,,0.00,WUHU216HW,2013-04-01 15:07:00,
2013-04-01 08:12:00,42.3,35.6,30.00,South,180,1.1,1.3,77,0.00,,,0.00,WUHU216HW,2013-04-01 15:12:00,
2013-04-01 08:17:00,42.3,35.6,30.00,SW,225,0.2,1.3,77,0.00,,,0.00,WUHU216HW,2013-04-01 15:17:00,
2013-04-01 08:22:00,42.5,35.7,30.01,South,180,0.2,0.9,77,0.00,,,0.00,WUHU216HW,2013-04-01 15:22:00,
2013-04-01 08:27:00,42.8,36.1,30.01,SW,225,1.3,1.8,77,0.00,,,0.00,WUHU216HW,2013-04-01 15:27:00,
2013-04-01 08:32:00,42.8,36.1,30.01,SSW,203,0.4,1.8,77,0.00,,,0.00,WUHU216HW,2013-04-01 15:32:00,
2013-04-01 08:37:00,42.8,36.1,30.01,SSW,203,0.9,1.8,77,0.00,,,0.00,WUHU216HW,2013-04-01 15:37:00,
2013-04-01 08:42:00,43.0,36.3,30.01,SSE,158,0.7,1.1,77,0.00,,,0.00,WUHU216HW,2013-04-01 15:42:00,
2013-04-01 08:47:00,43.2,36.5,30.01,WSW,248,0.4,1.1,77,0.00,,,0.00,WUHU216HW,2013-04-01 15:47:00,
2013-04-01 08:52:00,43.4,36.6,30.01,South,180,0.4,1.1,77,0.00,,,0.00,WUHU216HW,2013-04-01 15:52:00,
2013-04-01 08:57:00,43.6,36.8,30.01,SSW,203,0.9,1.1,77,0.00,,,0.00,WUHU216HW,2013-04-01 15:57:00,
2013-04-01 09:02:00,43.7,37.0,30.01,SSW,203,0.4,1.1,77,0.00,,,0.00,WUHU216HW,2013-04-01 16:02:00,
2013-04-01 09:07:00,43.9,37.2,30.01,WSW,248,1.1,1.1,77,0.00,,,0.00,WUHU216HW,2013-04-01 16:07:00,
2013-04-01 09:12:00,44.6,37.9,30.01,SSW,203,0.4,1.8,77,0.00,,,0.00,WUHU216HW,2013-04-01 16:12:00,
2013-04-01 09:17:00,45.2,38.4,30.01,SSW,203,1.6,1.8,77,0.00,,,0.00,WUHU216HW,2013-04-01 16:17:00,
2013-04-01 09:22:00,45.9,39.2,30.02,SSW,203,0.4,1.6,77,0.00,,,0.00,WUHU216HW,2013-04-01 16:22:00,
2013-04-01 09:27:00,46.4,39.3,30.02,SSE,158,0.0,2.5,76,0.00,,,0.00,WUHU216HW,2013-04-01 16:27:00,
2013-04-01 09:32:00,47.2,39.6,30.02,ESE,113,0.9,2.5,75,0.00,,,0.00,WUHU216HW,2013-04-01 16:32:00,
2013-04-01 09:37:00,47.5,40.0,30.02,SE,135,1.6,2.5,75,0.00,,,0.00,WUHU216HW,2013-04-01 16:37:00,
2013-04-01 09:42:00,48.2,40.2,30.02,West,270,0.4,2.5,74,0.00,,,0.00,WUHU216HW,2013-04-01 16:42:00,
2013-04-01 09:47:00,49.0,41.0,30.02,SW,225,1.8,2.5,74,0.00,,,0.00,WUHU216HW,2013-04-01 16:47:00,
2013-04-01 09:53:00,49.3,40.3,30.03,NE,45,2.7,2.7,71,0.00,,,0.00,WUHU216HW,2013-04-01 16:53:00,
2013-04-01 09:58:00,49.3,40.0,30.02,SE,135,0.4,3.4,70,0.00,,,0.00,WUHU216HW,2013-04-01 16:58:00,
2013-04-01 10:03:00,49.7,40.3,30.02,NE,45,0.7,4.0,70,0.00,,,0.00,WUHU216HW,2013-04-01 17:03:00,
2013-04-01 10:08:00,50.2,40.1,30.03,WNW,293,2.5,4.0,68,0.00,,,0.00,WUHU216HW,2013-04-01 17:08:00,
2013-04-01 10:13:00,50.6,40.4,30.03,NNW,338,1.8,3.1,68,0.00,,,0.00,WUHU216HW,2013-04-01 17:13:00,
2013-04-01 10:18:00,50.8,40.2,30.03,NNW,338,3.4,4.7,67,0.00,,,0.00,WUHU216HW,2013-04-01 17:18:00,
2013-04-01 10:23:00,51.1,41.0,30.03,NW,315,3.6,4.7,68,0.00,,,0.00,WUHU216HW,2013-04-01 17:23:00,
2013-04-01 10:28:00,51.5,40.9,30.03,NE,45,0.7,5.8,67,0.00,,,0.00,WUHU216HW,2013-04-01 17:28:00,
2013-04-01 10:33:00,51.7,40.7,30.03,NNW,338,1.6,5.8,66,0.00,,,0.00,WUHU216HW,2013-04-01 17:33:00,
2013-04-01 10:38:00,51.8,40.9,30.03,NNE,23,2.7,5.4,66,0.00,,,0.00,WUHU216HW,2013-04-01 17:38:00,
2013-04-01 10:43:00,52.2,41.1,30.03,SSW,203,1.8,6.5,66,0.00,,,0.00,WUHU216HW,2013-04-01 17:43:00,
2013-04-01 10:48:00,52.7,41.7,30.03,SSW,203,1.8,6.5,66,0.00,,,0.00,WUHU216HW,2013-04-01 17:48:00,
2013-04-01 10:53:00,53.1,41.2,30.03,NE,45,1.6,3.1,64,0.00,,,0.00,WUHU216HW,2013-04-01 17:53:00,
2013-04-01 10:58:00,53.5,41.6,30.03,SSE,158,0.2,2.7,64,0.00,,,0.00,WUHU216HW,2013-04-01 17:58:00,
2013-04-01 11:03:00,54.0,41.7,30.03,WSW,248,3.4,4.0,63,0.00,,,0.00,WUHU216HW,2013-04-01 18:03:00,
2013-04-01 11:08:00,54.0,41.2,30.03,NNE,23,6.5,6.5,62,0.00,,,0.00,WUHU216HW,2013-04-01 18:08:00,
2013-04-01 11:13:00,53.6,40.5,30.03,SW,225,2.5,8.9,61,0.00,,,0.00,WUHU216HW,2013-04-01 18:13:00,
2013-04-01 11:18:00,54.0,41.2,30.03,North,0,0.4,8.9,62,0.00,,,0.00,WUHU216HW,2013-04-01 18:18:00,
2013-04-01 11:23:00,54.0,41.7,30.03,WNW,293,0.9,3.4,63,0.00,,,0.00,WUHU216HW,2013-04-01 18:23:00,
2013-04-01 11:28:00,54.4,41.2,30.03,West,270,2.0,3.1,61,0.00,,,0.00,WUHU216HW,2013-04-01 18:28:00,
2013-04-01 11:34:00,54.4,40.8,30.04,NNE,23,0.7,3.6,60,0.00,,,0.00,WUHU216HW,2013-04-01 18:34:00,
2013-04-01 11:39:00,54.2,41.4,30.03,East,90,4.0,4.0,62,0.00,,,0.00,WUHU216HW,2013-04-01 18:39:00,
2013-04-01 11:44:00,54.4,42.0,30.03,SSE,158,2.5,4.0,63,0.00,,,0.00,WUHU216HW,2013-04-01 18:44:00,
2013-04-01 11:49:00,54.9,40.8,30.04,East,90,4.0,6.9,59,0.00,,,0.00,WUHU216HW,2013-04-01 18:49:00,
2013-04-01 11:54:00,55.1,41.9,30.04,NNW,338,0.4,6.9,61,0.00,,,0.00,WUHU216HW,2013-04-01 18:54:00,
2013-04-01 11:59:00,55.4,41.8,30.04,NNW,338,2.5,4.5,60,0.00,,,0.00,WUHU216HW,2013-04-01 18:59:00,
2013-04-01 12:04:00,55.6,41.9,30.04,NNW,338,1.1,4.5,60,0.00,,,0.00,WUHU216HW,2013-04-01 19:04:00,
2013-04-01 12:09:00,55.1,40.5,30.04,WNW,293,1.3,6.9,58,0.00,,,0.00,WUHU216HW,2013-04-01 19:09:00,
2013-04-01 12:14:00,55.1,40.5,30.04,NNE,23,1.8,6.9,58,0.00,,,0.00,WUHU216HW,2013-04-01 19:14:00,
2013-04-01 12:19:00,55.3,41.1,30.04,NNE,23,0.9,5.6,59,0.00,,,0.00,WUHU216HW,2013-04-01 19:19:00,
2013-04-01 12:24:00,55.4,41.3,30.04,NNE,23,1.1,3.4,59,0.00,,,0.00,WUHU216HW,2013-04-01 19:24:00,
2013-04-01 12:29:00,55.4,40.9,30.03,SE,135,1.1,3.1,58,0.00,,,0.00,WUHU216HW,2013-04-01 19:29:00,
2013-04-01 12:34:00,55.8,41.7,30.03,East,90,2.2,3.1,59,0.00,,,0.00,WUHU216HW,2013-04-01 19:34:00,
2013-04-01 12:39:00,56.0,41.9,30.04,NE,45,1.8,2.5,59,0.00,,,0.00,WUHU216HW,2013-04-01 19:39:00,
2013-04-01 12:44:00,56.0,41.4,30.04,SSE,158,1.1,4.0,58,0.00,,,0.00,WUHU216HW,2013-04-01 19:44:00,
2013-04-01 12:49:00,55.8,40.2,30.04,NW,315,4.7,4.7,56,0.00,,,0.00,WUHU216HW,2013-04-01 19:49:00,
2013-04-01 12:54:00,55.6,40.5,30.04,NNW,338,1.3,4.7,57,0.00,,,0.00,WUHU216HW,2013-04-01 19:54:00,
2013-04-01 12:59:00,55.6,40.5,30.03,SSW,203,1.1,2.7,57,0.00,,,0.00,WUHU216HW,2013-04-01 19:59:00,
2013-04-01 13:04:00,55.8,40.2,30.03,NE,45,2.7,2.7,56,0.00,,,0.00,WUHU216HW,2013-04-01 20:04:00,
2013-04-01 13:09:00,56.3,41.2,30.03,NW,315,2.5,3.1,57,0.00,,,0.00,WUHU216HW,2013-04-01 20:09:00,
2013-04-01 13:14:00,56.5,40.1,30.03,NE,45,1.6,6.7,54,0.00,,,0.00,WUHU216HW,2013-04-01 20:14:00,
2013-04-01 13:20:00,56.3,40.3,30.03,North,0,1.3,4.0,55,0.00,,,0.00,WUHU216HW,2013-04-01 20:20:00,
2013-04-01 13:25:00,56.5,40.5,30.03,NW,315,0.7,4.0,55,0.00,,,0.00,WUHU216HW,2013-04-01 20:25:00,
2013-04-01 13:30:00,56.9,40.9,30.03,NW,315,3.4,4.0,55,0.00,,,0.00,WUHU216HW,2013-04-01 20:30:00,
2013-04-01 13:35:00,57.1,41.0,30.03,ENE,68,1.1,3.4,55,0.00,,,0.00,WUHU216HW,2013-04-01 20:35:00,
2013-04-01 13:40:00,57.2,40.8,30.03,SE,135,2.0,3.1,54,0.00,,,0.00,WUHU216HW,2013-04-01 20:40:00,
2013-04-01 13:45:00,58.0,41.0,30.03,North,0,5.6,5.6,53,0.00,,,0.00,WUHU216HW,2013-04-01 20:45:00,
2013-04-01 13:50:00,58.5,41.9,30.03,WSW,248,1.8,8.1,54,0.00,,,0.00,WUHU216HW,2013-04-01 20:50:00,
2013-04-01 13:55:00,58.3,40.8,30.03,WNW,293,3.4,8.1,52,0.00,,,0.00,WUHU216HW,2013-04-01 20:55:00,
2013-04-01 14:00:00,57.8,40.8,30.03,NW,315,2.5,5.6,53,0.00,,,0.00,WUHU216HW,2013-04-01 21:00:00,
2013-04-01 14:05:00,57.6,40.6,30.03,North,0,5.4,5.4,53,0.00,,,0.00,WUHU216HW,2013-04-01 21:05:00,
2013-04-01 14:10:00,57.6,40.6,30.03,SW,225,4.0,5.4,53,0.00,,,0.00,WUHU216HW,2013-04-01 21:10:00,
2013-04-01 14:15:00,58.0,41.0,30.03,NNW,338,4.0,5.6,53,0.00,,,0.00,WUHU216HW,2013-04-01 21:15:00,
2013-04-01 14:20:00,58.7,42.0,30.03,SW,225,0.2,6.7,54,0.00,,,0.00,WUHU216HW,2013-04-01 21:20:00,
2013-04-01 14:25:00,59.0,41.4,30.03,NW,315,1.8,6.9,52,0.00,,,0.00,WUHU216HW,2013-04-01 21:25:00,
2013-04-01 14:30:00,58.9,41.8,30.03,SSE,158,2.2,6.9,53,0.00,,,0.00,WUHU216HW,2013-04-01 21:30:00,
2013-04-01 14:35:00,59.0,41.0,30.03,West,270,3.1,9.2,51,0.00,,,0.00,WUHU216HW,2013-04-01 21:35:00,
2013-04-01 14:40:00,58.9,40.8,30.03,WNW,293,1.8,9.2,51,0.00,,,0.00,WUHU216HW,2013-04-01 21:40:00,
2013-04-01 14:45:00,58.9,40.8,30.03,NW,315,4.7,4.7,51,0.00,,,0.00,WUHU216HW,2013-04-01 21:45:00,
2013-04-01 14:50:00,58.7,40.1,30.03,NW,315,3.6,4.9,50,0.00,,,0.00,WUHU216HW,2013-04-01 21:50:00,
2013-04-01 14:55:00,59.2,40.7,30.03,NNW,338,2.7,4.9,50,0.00,,,0.00,WUHU216HW,2013-04-01 21:55:00,
2013-04-01 15:00:00,59.0,40.5,30.03,NNW,338,3.6,4.7,50,0.00,,,0.00,WUHU216HW,2013-04-01 22:00:00,
2013-04-01 15:05:00,59.4,40.2,30.02,SW,225,0.9,5.4,49,0.00,,,0.00,WUHU216HW,2013-04-01 22:05:00,
2013-04-01 15:10:00,59.8,41.6,30.03,ESE,113,1.1,5.4,51,0.00,,,0.00,WUHU216HW,2013-04-01 22:10:00,
2013-04-01 15:15:00,60.1,40.3,30.03,NNW,338,4.0,4.9,48,0.00,,,0.00,WUHU216HW,2013-04-01 22:15:00,
2013-04-01 15:20:00,59.8,40.6,30.03,NW,315,1.6,4.9,49,0.00,,,0.00,WUHU216HW,2013-04-01 22:20:00,
2013-04-01 15:25:00,59.4,40.2,30.03,ENE,68,0.7,7.2,49,0.00,,,0.00,WUHU216HW,2013-04-01 22:25:00,
2013-04-01 15:30:00,58.7,40.1,30.03,North,0,2.9,7.2,50,0.00,,,0.00,WUHU216HW,2013-04-01 22:30:00,
2013-04-01 15:35:00,58.7,39.6,30.03,West,270,2.2,6.5,49,0.00,,,0.00,WUHU216HW,2013-04-01 22:35:00,
2013-04-01 15:40:00,59.0,40.5,30.03,North,0,0.4,6.5,50,0.00,,,0.00,WUHU216HW,2013-04-01 22:40:00,
2013-04-01 15:45:00,59.9,40.8,30.03,NNW,338,2.5,3.8,49,0.00,,,0.00,WUHU216HW,2013-04-01 22:45:00,
2013-04-01 15:50:00,59.2,39.5,30.02,West,270,4.0,7.6,48,0.00,,,0.00,WUHU216HW,2013-04-01 22:50:00,
2013-04-01 15:55:00,59.4,39.7,30.02,West,270,1.1,7.6,48,0.00,,,0.00,WUHU216HW,2013-04-01 22:55:00,
2013-04-01 16:00:00,59.8,39.4,30.03,WSW,248,1.1,3.4,47,0.00,,,0.00,WUHU216HW,2013-04-01 23:00:00,
2013-04-01 16:05:00,59.6,40.4,30.02,West,270,2.7,4.5,49,0.00,,,0.00,WUHU216HW,2013-04-01 23:05:00,
2013-04-01 16:11:00,59.6,40.4,30.03,WNW,293,1.1,4.5,49,0.00,,,0.00,WUHU216HW,2013-04-01 23:11:00,
2013-04-01 16:16:00,59.0,40.0,30.03,East,90,1.8,3.4,49,0.00,,,0.00,WUHU216HW,2013-04-01 23:16:00,
2013-04-01 16:21:00,58.5,39.4,30.03,WSW,248,4.0,4.7,49,0.00,,,0.00,WUHU216HW,2013-04-01 23:21:00,
2013-04-01 16:26:00,58.0,39.5,30.03,ESE,113,2.5,4.7,50,0.00,,,0.00,WUHU216HW,2013-04-01 23:26:00,
2013-04-01 16:31:00,57.8,39.9,30.03,SSW,203,0.7,4.0,51,0.00,,,0.00,WUHU216HW,2013-04-01 23:31:00,
2013-04-01 16:36:00,57.6,39.7,30.03,West,270,3.8,4.7,51,0.00,,,0.00,WUHU216HW,2013-04-01 23:36:00,
2013-04-01 16:41:00,57.8,39.9,30.03,ENE,68,2.0,4.7,51,0.00,,,0.00,WUHU216HW,2013-04-01 23:41:00,
2013-04-01 16:46:00,57.8,39.9,30.03,NNW,338,1.1,4.5,51,0.00,,,0.00,WUHU216HW,2013-04-01 23:46:00,
2013-04-01 16:51:00,58.0,40.0,30.03,SSE,158,2.7,4.5,51,0.00,,,0.00,WUHU216HW,2013-04-01 23:51:00,
2013-04-01 16:56:00,58.3,39.9,30.03,NNW,338,11.2,11.2,50,0.00,,,0.00,WUHU216HW,2013-04-01 23:56:00,
2013-04-01 17:02:00,58.1,39.7,30.03,North,0,1.8,11.2,50,0.00,,,0.00,WUHU216HW,2013-04-02 00:02:00,
2013-04-01 17:07:00,58.3,39.9,30.03,WNW,293,4.3,6.3,50,0.00,,,0.00,WUHU216HW,2013-04-02 00:07:00,
2013-04-01 17:12:00,58.5,40.1,30.03,North,0,4.0,4.5,50,0.00,,,0.00,WUHU216HW,2013-04-02 00:12:00,
2013-04-01 17:17:00,58.3,40.3,30.03,WNW,293,3.4,6.3,51,0.00,,,0.00,WUHU216HW,2013-04-02 00:17:00,
2013-04-01 17:22:00,58.1,40.1,30.03,NNE,23,1.8,6.9,51,0.00,,,0.00,WUHU216HW,2013-04-02 00:22:00,
2013-04-01 17:27:00,58.0,40.0,30.03,East,90,3.4,6.9,51,0.00,,,0.00,WUHU216HW,2013-04-02 00:27:00,
2013-04-01 17:32:00,58.0,40.0,30.03,North,0,4.7,4.7,51,0.00,,,0.00,WUHU216HW,2013-04-02 00:32:00,
2013-04-01 17:37:00,58.0,40.0,30.03,SSW,203,1.3,4.7,51,0.00,,,0.00,WUHU216HW,2013-04-02 00:37:00,
2013-04-01 17:42:00,58.0,39.5,30.03,WNW,293,2.7,7.4,50,0.00,,,0.00,WUHU216HW,2013-04-02 00:42:00,
2013-04-01 17:47:00,57.6,39.3,30.04,NNW,338,2.5,7.4,50,0.00,,,0.00,WUHU216HW,2013-04-02 00:47:00,
2013-04-01 17:52:00,57.4,39.5,30.04,West,270,3.4,5.8,51,0.00,,,0.00,WUHU216HW,2013-04-02 00:52:00,
2013-04-01 17:57:00,57.4,39.5,30.04,NW,315,2.7,4.0,51,0.00,,,0.00,WUHU216HW,2013-04-02 00:57:00,
2013-04-01 18:02:00,57.2,38.9,30.04,NNW,338,7.2,7.2,50,0.00,,,0.00,WUHU216HW,2013-04-02 01:02:00,
2013-04-01 18:07:00,56.5,38.2,30.04,WNW,293,9.8,9.8,50,0.00,,,0.00,WUHU216HW,2013-04-02 01:07:00,
2013-04-01 18:12:00,55.6,37.3,30.04,NW,315,0.9,9.8,50,0.00,,,0.00,WUHU216HW,2013-04-02 01:12:00,
2013-04-01 18:17:00,55.4,37.5,30.04,NNW,338,3.4,7.2,51,0.00,,,0.00,WUHU216HW,2013-04-02 01:17:00,
2013-04-01 18:22:00,55.4,37.5,30.04,NNE,23,3.4,5.4,51,0.00,,,0.00,WUHU216HW,2013-04-02 01:22:00,
2013-04-01 18:27:00,55.4,37.5,30.04,North,0,1.8,5.4,51,0.00,,,0.00,WUHU216HW,2013-04-02 01:27:00,
2013-04-01 18:32:00,55.4,38.0,30.04,South,180,1.1,3.1,52,0.00,,,0.00,WUHU216HW,2013-04-02 01:32:00,
2013-04-01 18:37:00,55.4,37.5,30.04,NW,315,5.4,5.4,51,0.00,,,0.00,WUHU216HW,2013-04-02 01:37:00,
2013-04-01 18:42:00,55.1,37.7,30.05,NW,315,4.9,5.4,52,0.00,,,0.00,WUHU216HW,2013-04-02 01:42:00,
2013-04-01 18:48:00,54.9,37.5,30.05,NNE,23,2.0,5.6,52,0.00,,,0.00,WUHU216HW,2013-04-02 01:48:00,
2013-04-01 18:53:00,54.5,37.2,30.05,NNW,338,4.3,7.6,52,0.00,,,0.00,WUHU216HW,2013-04-02 01:53:00,
2013-04-01 18:58:00,54.2,37.4,30.05,NW,315,3.4,7.6,53,0.00,,,0.00,WUHU216HW,2013-04-02 01:58:00,
2013-04-01 19:03:00,53.6,37.4,30.06,West,270,2.0,7.4,54,0.00,,,0.00,WUHU216HW,2013-04-02 02:03:00,
2013-04-01 19:08:00,53.5,37.2,30.06,NNW,338,0.7,5.4,54,0.00,,,0.00,WUHU216HW,2013-04-02 02:08:00,
2013-04-01 19:13:00,53.3,37.4,30.06,North,0,1.1,4.3,55,0.00,,,0.00,WUHU216HW,2013-04-02 02:13:00,
2013-04-01 19:18:00,52.9,38.1,30.06,NW,315,2.5,4.3,57,0.00,,,0.00,WUHU216HW,2013-04-02 02:18:00,
2013-04-01 19:23:00,52.2,37.8,30.06,NNW,338,2.5,4.0,58,0.00,,,0.00,WUHU216HW,2013-04-02 02:23:00,
2013-04-01 19:28:00,51.7,37.7,30.06,NW,315,2.5,5.1,59,0.00,,,0.00,WUHU216HW,2013-04-02 02:28:00,
2013-04-01 19:33:00,51.5,37.5,30.06,NNE,23,3.1,5.1,59,0.00,,,0.00,WUHU216HW,2013-04-02 02:33:00,
2013-04-01 19:38:00,50.8,37.8,30.06,NW,315,1.8,7.2,61,0.00,,,0.00,WUHU216HW,2013-04-02 02:38:00,
2013-04-01 19:43:00,50.6,38.0,30.06,WNW,293,3.4,7.2,62,0.00,,,0.00,WUHU216HW,2013-04-02 02:43:00,
2013-04-01 19:48:00,50.2,38.1,30.06,NE,45,2.2,4.5,63,0.00,,,0.00,WUHU216HW,2013-04-02 02:48:00,
2013-04-01 19:53:00,50.0,38.4,30.07,NNW,338,1.8,5.6,64,0.00,,,0.00,WUHU216HW,2013-04-02 02:53:00,
2013-04-01 19:58:00,49.7,38.0,30.07,NNE,23,5.6,5.6,64,0.00,,,0.00,WUHU216HW,2013-04-02 02:58:00,
2013-04-01 20:03:00,49.3,38.0,30.07,North,0,2.7,5.6,65,0.00,,,0.00,WUHU216HW,2013-04-02 03:03:00,
2013-04-01 20:08:00,49.0,37.3,30.07,NW,315,3.6,5.4,64,0.00,,,0.00,WUHU216HW,2013-04-02 03:08:00,
2013-04-01 20:13:00,49.0,37.7,30.07,North,0,2.0,3.6,65,0.00,,,0.00,WUHU216HW,2013-04-02 03:13:00,
2013-04-01 20:18:00,48.8,37.5,30.07,NNW,338,3.8,4.0,65,0.00,,,0.00,WUHU216HW,2013-04-02 03:18:00,
2013-04-01 20:23:00,48.6,37.7,30.08,NNW,338,2.9,5.4,66,0.00,,,0.00,WUHU216HW,2013-04-02 03:23:00,
2013-04-01 20:28:00,48.6,38.1,30.08,NNW,338,3.4,5.4,67,0.00,,,0.00,WUHU216HW,2013-04-02 03:28:00,
2013-04-01 20:33:00,48.2,37.7,30.08,NW,315,2.9,3.8,67,0.00,,,0.00,WUHU216HW,2013-04-02 03:33:00,
2013-04-01 20:38:00,48.2,37.7,30.08,NW,315,1.8,3.6,67,0.00,,,0.00,WUHU216HW,2013-04-02 03:38:00,
2013-04-01 20:43:00,48.2,37.7,30.09,NNW,338,1.8,4.3,67,0.00,,,0.00,WUHU216HW,2013-04-02 03:43:00,
2013-04-01 20:48:00,48.1,37.6,30.09,North,0,5.1,5.1,67,0.00,,,0.00,WUHU216HW,2013-04-02 03:48:00,
2013-04-01 20:53:00,48.1,37.6,30.09,NNW,338,1.8,5.1,67,0.00,,,0.00,WUHU216HW,2013-04-02 03:53:00,
2013-04-01 20:58:00,48.1,37.6,30.09,NNW,338,0.9,2.2,67,0.00,,,0.00,WUHU216HW,2013-04-02 03:58:00,
2013-04-01 21:00:00,48.1,37.6,30.09,North,0,2.0,2.2,67,0.00,,,0.00,WUHU216HW,2013-04-02 04:00:00,
2013-04-01 21:01:00,48.1,37.6,30.09,North,0,1.8,2.2,67,0.00,,,0.00,WUHU216HW,2013-04-02 04:01:00,
2013-04-01 21:06:00,48.1,37.2,30.09,North,0,1.6,2.5,66,0.00,,,0.00,WUHU216HW,2013-04-02 04:06:00,
2013-04-01 21:11:00,47.9,37.0,30.09,NNW,338,0.4,3.1,66,0.00,,,0.00,WUHU216HW,2013-04-02 04:11:00,
2013-04-01 21:16:00,47.9,37.0,30.09,NNW,338,0.0,3.1,66,0.00,,,0.00,WUHU216HW,2013-04-02 04:16:00,
2013-04-01 21:21:00,47.9,36.6,30.09,NW,315,0.2,1.6,65,0.00,,,0.00,WUHU216HW,2013-04-02 04:21:00,
2013-04-01 21:26:00,47.7,36.9,30.09,WNW,293,0.7,1.1,66,0.00,,,0.00,WUHU216HW,2013-04-02 04:26:00,
2013-04-01 21:31:00,47.5,36.3,30.09,SSW,203,0.2,0.9,65,0.00,,,0.00,WUHU216HW,2013-04-02 04:31:00,
2013-04-01 21:37:00,47.3,36.2,30.09,West,270,0.0,0.9,65,0.00,,,0.00,WUHU216HW,2013-04-02 04:37:00,
2013-04-01 21:42:00,47.2,36.0,30.09,NNW,338,0.0,0.4,65,0.00,,,0.00,WUHU216HW,2013-04-02 04:42:00,
2013-04-01 21:46:00,47.0,36.5,30.09,NNE,23,0.0,0.4,67,0.00,,,0.00,WUHU216HW,2013-04-02 04:46:00,
2013-04-01 21:51:00,46.6,36.3,30.09,WSW,248,0.4,1.6,67,0.00,,,0.00,WUHU216HW,2013-04-02 04:51:00,
2013-04-01 21:56:00,46.4,36.1,30.09,SW,225,0.4,1.6,67,0.00,,,0.00,WUHU216HW,2013-04-02 04:56:00,
2013-04-01 22:02:00,46.3,36.3,30.09,SW,225,0.9,1.6,68,0.00,,,0.00,WUHU216HW,2013-04-02 05:02:00,
2013-04-01 22:07:00,46.1,36.1,30.09,NNW,338,0.2,1.8,68,0.00,,,0.00,WUHU216HW,2013-04-02 05:07:00,
2013-04-01 22:12:00,45.9,36.4,30.09,West,270,0.7,2.7,69,0.00,,,0.00,WUHU216HW,2013-04-02 05:12:00,
2013-04-01 22:17:00,45.7,36.9,30.09,NW,315,1.1,2.7,71,0.00,,,0.00,WUHU216HW,2013-04-02 05:17:00,
2013-04-01 22:22:00,45.4,36.2,30.09,WNW,293,0.4,2.7,70,0.00,,,0.00,WUHU216HW,2013-04-02 05:22:00,
2013-04-01 22:27:00,45.2,36.4,30.09,NNW,338,0.9,2.7,71,0.00,,,0.00,WUHU216HW,2013-04-02 05:27:00,
2013-04-01 22:32:00,45.0,36.2,30.09,NNW,338,1.1,1.8,71,0.00,,,0.00,WUHU216HW,2013-04-02 05:32:00,
2013-04-01 22:37:00,44.8,36.0,30.09,NNW,338,0.4,3.4,71,0.00,,,0.00,WUHU216HW,2013-04-02 05:37:00,
2013-04-01 22:42:00,44.6,36.5,30.09,SW,225,3.4,3.4,73,0.00,,,0.00,WUHU216HW,2013-04-02 05:42:00,
2013-04-01 22:47:00,44.5,36.0,30.09,SSW,203,0.0,3.4,72,0.00,,,0.00,WUHU216HW,2013-04-02 05:47:00,
2013-04-01 22:52:00,44.3,36.2,30.09,North,0,1.1,1.6,73,0.00,,,0.00,WUHU216HW,2013-04-02 05:52:00,
2013-04-01 22:57:00,44.3,36.5,30.09,WSW,248,1.3,1.6,74,0.00,,,0.00,WUHU216HW,2013-04-02 05:57:00,
2013-04-01 23:02:00,44.3,36.2,30.09,South,180,0.4,1.3,73,0.00,,,0.00,WUHU216HW,2013-04-02 06:02:00,
2013-04-01 23:07:00,44.1,35.6,30.09,North,0,0.2,2.2,72,0.00,,,0.00,WUHU216HW,2013-04-02 06:07:00,
2013-04-01 23:12:00,44.1,36.0,30.09,WSW,248,1.1,2.2,73,0.00,,,0.00,WUHU216HW,2013-04-02 06:12:00,
2013-04-01 23:17:00,44.1,36.0,30.09,ESE,113,0.4,2.9,73,0.00,,,0.00,WUHU216HW,2013-04-02 06:17:00,
2013-04-01 23:22:00,43.9,35.8,30.10,NW,315,0.4,2.9,73,0.00,,,0.00,WUHU216HW,2013-04-02 06:22:00,
2013-04-01 23:27:00,43.7,35.6,30.10,WNW,293,0.9,1.6,73,0.00,,,0.00,WUHU216HW,2013-04-02 06:27:00,
2013-04-01 23:32:00,43.6,35.5,30.10,SSW,203,2.0,4.3,73,0.00,,,0.00,WUHU216HW,2013-04-02 06:32:00,
2013-04-01 23:37:00,43.4,35.3,30.10,West,270,0.4,4.3,73,0.00,,,0.00,WUHU216HW,2013-04-02 06:37:00,
2013-04-01 23:42:00,43.2,35.2,30.10,West,270,2.2,2.2,73,0.00,,,0.00,WUHU216HW,2013-04-02 06:42:00,
2013-04-01 23:48:00,43.0,35.0,30.10,NW,315,0.4,2.2,73,0.00,,,0.00,WUHU216HW,2013-04-02 06:48:00,
2013-04-01 23:53:00,42.8,34.8,30.10,WNW,293,1.1,1.3,73,0.00,,,0.00,WUHU216HW,2013-04-02 06:53:00,
2013-04-01 23:58:00,42.7,34.9,30.10,NNW,338,0.4,2.7,74,0.00,,,0.00,WUHU216HW,2013-04-02 06:58:00,